Lumberton, NC

4:44 AM EDT on August 19, 2017 (GMT -0400)
Lumberton Municipal

Weather History for KLBT - October, 2011

Change the Weather History Date:

Thursday, October 13, 2011

  Actual Average Record
Temperature  
Mean Temperature 72 °F 64 °F  
Max Temperature 81 °F 76 °F 85 °F (2014)
Min Temperature 63 °F 52 °F 36 °F (2000)
Degree Days  
Heating Degree Days 0 3  
Month to date heating degree days 36 27  
Since 1 July heating degree days 43 36  
Cooling Degree Days 7 2  
Month to date cooling degree days 25 43  
Year to date cooling degree days 2282 1864  
Growing Degree Days 22 (Base 50)    
Moisture  
Dew Point 67 °F    
Average Humidity 79    
Maximum Humidity 100    
Minimum Humidity 58    
Precipitation  
Precipitation 0.08 in 0.07 in 1.04 in (1999)
Month to date precipitation 1.89 1.44  
Year to date precipitation 36.40 36.63  
Sea Level Pressure  
Sea Level Pressure 29.71 in    
Wind  
Wind Speed 5 mph (SSW)    
Max Wind Speed 16 mph    
Max Gust Speed 26 mph    
Visibility 6 miles    
Events      
T = Trace of Precipitation, MM = Missing Value Source: NWS Daily Summary

Daily Weather History Graph

Daily Weather History Graph

Search for Another Location

Airport or City:

Trip Planner

Search our weather history database for the weather conditions in past years. The results will help you decide how hot, cold, wet, or windy it might be!

Date:

Astronomy

Oct. 13, 2011 Rise Set
Actual Time 7:19 AM EDT 6:44 PM EDT
Civil Twilight 6:54 AM EDT 7:09 PM EDT
Nautical Twilight 6:25 AM EDT 7:39 PM EDT
Astronomical Twilight 5:56 AM EDT 8:08 PM EDT
Moon 7:26 PM EDT (10/13) 8:43 AM EDT (10/13)
Length of Visible Light 12h 15m
Length of Day
11h 24m
Full, 98% of the Moon is Illuminated
Oct 13
Full
Oct 19
Last Quarter
Oct 26
New
Nov 2
First Quarter
Nov 10
Full

Hourly Weather History & Observations

Time (EDT) Temp. Dew Point Humidity Pressure Visibility Wind Dir Wind Speed Gust Speed Precip Events Conditions
12:54 AM 70.0 °F 69.1 °F 97% 29.76 in 6.0 mi SW 4.6 mph - N/A   Overcast
1:54 AM 70.0 °F 69.1 °F 97% 29.75 in 6.0 mi South 4.6 mph - N/A   Overcast
2:54 AM 70.0 °F 69.1 °F 97% 29.75 in 4.0 mi Calm Calm - N/A   Overcast
3:54 AM 70.0 °F 69.1 °F 97% 29.73 in 4.0 mi SW 3.5 mph - N/A   Overcast
4:54 AM 70.0 °F 69.1 °F 97% 29.73 in 4.0 mi Calm Calm - N/A   Overcast
5:28 AM 69.8 °F 69.8 °F 100% 29.74 in 4.0 mi South 3.5 mph - N/A   Overcast
5:44 AM 69.8 °F 69.8 °F 100% 29.74 in 4.0 mi Calm Calm - N/A   Overcast
5:54 AM 70.0 °F 69.1 °F 97% 29.74 in 4.0 mi Calm Calm - N/A   Overcast
6:32 AM 69.8 °F 69.8 °F 100% 29.73 in 3.0 mi Calm Calm - N/A   Overcast
6:42 AM 69.8 °F 68.0 °F 94% 29.73 in 3.0 mi Calm Calm - N/A   Overcast
6:54 AM 69.1 °F 68.0 °F 96% 29.73 in 3.0 mi ESE 3.5 mph - N/A   Overcast
7:02 AM 69.8 °F 68.0 °F 94% 29.73 in 2.5 mi SE 4.6 mph - N/A   Overcast
7:27 AM 69.8 °F 68.0 °F 94% 29.73 in 2.5 mi Calm Calm - N/A   Overcast
7:35 AM 69.8 °F 68.0 °F 94% 29.73 in 1.8 mi Calm Calm - N/A   Overcast
7:44 AM 69.8 °F 68.0 °F 94% 29.73 in 1.2 mi Calm Calm - N/A   Overcast
7:54 AM 69.1 °F 68.0 °F 96% 29.73 in 1.2 mi Calm Calm - N/A   Overcast
8:30 AM 69.8 °F 69.8 °F 100% 29.74 in 1.8 mi Variable 3.5 mph - N/A   Overcast
8:38 AM 69.8 °F 69.8 °F 100% 29.74 in 2.5 mi Calm Calm - N/A   Overcast
8:54 AM 71.1 °F 70.0 °F 96% 29.74 in 2.5 mi Variable 3.5 mph - N/A   Overcast
9:09 AM 71.6 °F 69.8 °F 94% 29.74 in 2.5 mi Variable 3.5 mph - N/A   Overcast
9:16 AM 71.6 °F 69.8 °F 94% 29.74 in 3.0 mi SSE 3.5 mph - N/A   Overcast
10:07 AM 71.6 °F 69.8 °F 94% 29.73 in 4.0 mi SSW 4.6 mph - N/A   Overcast
10:29 AM 75.2 °F 71.6 °F 89% 29.72 in 6.0 mi Variable 5.8 mph - N/A   Mostly Cloudy
10:54 AM 73.9 °F 69.1 °F 85% 29.73 in 8.0 mi SSW 5.8 mph - N/A   Overcast
11:11 AM 75.2 °F 69.8 °F 83% 29.72 in 9.0 mi SSW 8.1 mph - N/A   Mostly Cloudy
11:37 AM 75.2 °F 68.0 °F 78% 29.71 in 10.0 mi SSW 5.8 mph - N/A   Overcast
11:54 AM 75.9 °F 66.9 °F 74% 29.71 in 10.0 mi SSW 5.8 mph - N/A   Mostly Cloudy
12:54 PM 75.9 °F 66.9 °F 74% 29.70 in 10.0 mi SSW 8.1 mph - N/A   Overcast
1:54 PM 79.0 °F 66.0 °F 64% 29.66 in 10.0 mi SW 11.5 mph 19.6 mph N/A   Scattered Clouds
3:54 PM 77.0 °F 62.1 °F 60% 29.64 in 10.0 mi SSW 10.4 mph - N/A   Mostly Cloudy
4:54 PM 77.0 °F 62.1 °F 60% 29.63 in 10.0 mi SW 5.8 mph - N/A   Partly Cloudy
5:54 PM 75.0 °F 62.1 °F 64% 29.62 in 10.0 mi SSW 5.8 mph - N/A   Clear
6:54 PM 71.1 °F 63.0 °F 75% 29.63 in 10.0 mi SSW 3.5 mph - N/A   Clear
7:54 PM 66.9 °F 63.0 °F 87% 29.64 in 10.0 mi Calm Calm - N/A   Clear
8:54 PM 66.9 °F 63.0 °F 87% 29.64 in 10.0 mi South 3.5 mph - N/A   Clear
10:54 PM 66.0 °F 63.0 °F 90% 29.65 in 10.0 mi South 3.5 mph - N/A   Partly Cloudy
11:54 PM 66.0 °F 60.1 °F 81% 29.67 in 10.0 mi WSW 11.5 mph 16.1 mph 0.01 in   Overcast